Location: Saint-Restitut
(44.3351°N, 4.7915°E)
Time: 11:53:33
(UTC+00:00)

CZ-4B DEB - Pass Details

Date: 03 February 2023
Orbit: 839 x 859 km, 99.1° (Epoch: 19 March)

Event Time Altitude Azimuth Distance (km) Brightness Sun altitude
Rises 17:45:38 0° 155° (SSE) 3,380 7.2 -9.8°
Reaches altitude 10° 17:47:59 10° 153° (SSE) 2,450 6.5 -10.2°
Maximum altitude 17:53:22 67° 72° (ENE) 912 4.2 -11.2°
Drops below altitude 10° 17:58:48 10° 351° (N) 2,473 6.6 -12.1°
Sets 18:01:11 0° 349° (NNW) 3,415 7.4 -12.6°
